Location: Unspecified
(40.6067°N, 0.0000°E)
Time: 02:51:01
(UTC+00:00)

SL-8 DEB - Visible Passes

Search period start: 05 April 2026 00:00
Search period end: 15 April 2026 00:00
Orbit: 754 x 787 km, 74.0° (Epoch: 27 March)

Date Brightness Start Highest point End Pass type
(mag) Time Alt. Az. Time Alt. Az. Time Alt. Az.
5 Apr ? 20:31:02 24° NE 20:31:02 24° NE 20:33:32 10° NE visible
5 Apr ? 22:11:14 28° NW 22:11:14 28° NW 22:15:27 10° N visible
6 Apr ? 19:53:41 20° E 19:53:41 20° E 19:56:32 10° NE visible
6 Apr ? 21:33:51 45° W 21:34:21 46° WNW 21:39:30 10° N visible
7 Apr ? 19:15:26 11° ESE 19:16:37 12° E 19:18:37 10° ENE visible
7 Apr ? 20:55:29 33° SSW 20:57:57 78° WNW 21:03:19 10° NNE visible
7 Apr ? 22:39:29 10° WNW 22:41:00 11° NW 22:42:31 10° NW visible
8 Apr ? 20:16:26 10° S 20:21:40 63° ESE 20:26:57 10° NNE visible
8 Apr ? 22:00:42 10° W 22:04:15 18° WNW 22:07:51 10° NNW visible
9 Apr ? 19:40:39 10° SSE 19:45:28 37° E 19:50:21 10° NE visible
9 Apr ? 21:23:06 10° WSW 21:27:38 28° WNW 21:32:13 10° N visible
10 Apr ? 19:05:23 10° SE 19:09:23 22° E 19:13:24 10° NE visible
10 Apr ? 20:46:04 10° SW 20:51:08 45° WNW 20:56:16 10° N visible
11 Apr ? 20:09:26 10° SSW 20:14:45 75° WNW 20:20:07 10° NNE visible
11 Apr ? 21:56:33 10° WNW 21:57:49 11° NW 21:59:06 10° NW visible
12 Apr ? 04:56:48 10° N 05:01:07 24° ENE 05:05:23 10° ESE visible
12 Apr ? 19:33:11 10° S 19:38:26 65° ESE 19:43:45 10° NNE visible
12 Apr ? 21:17:35 10° W 21:21:04 17° NW 21:24:34 10° NNW visible
13 Apr ? 04:21:20 10° NNE 04:24:28 16° NE 04:27:35 10° E visible
13 Apr ? 20:39:56 10° WSW 20:44:26 27° WNW 20:48:59 10° N visible
14 Apr ? 20:02:52 10° SW 20:07:56 44° WNW 20:13:03 10° N visible
